This is the latest recevied weather packets stored in our database for station/object K5NWZ. If no packets are shown the sender has not sent any weather packets the latest 10 day(s).
| Time | Temp. | Humidity | Pressure | Rain* | Wind** | Luminosity | Snow |
|---|---|---|---|---|---|---|---|
| 1777975203 | 2.22° C | 94% | 1022.7 hPa | 3.05 mm | - | 0 W/m² | - |
| 1777974900 | 2.78° C | 94% | 1022.5 hPa | 1.78 mm | - | 0 W/m² | - |
| 1777974595 | 2.78° C | 94% | 1022.6 hPa | 0 mm | - | 0 W/m² | - |
| 1777974293 | 2.78° C | 94% | 1022.5 hPa | 0 mm | - | 0 W/m² | - |
| 1777973989 | 2.78° C | 94% | 1022.6 hPa | 1.27 mm | - | 0 W/m² | - |
| 1777973685 | 2.78° C | 94% | 1022.5 hPa | 0 mm | - | 0 W/m² | - |
| 1777973383 | 2.78° C | 94% | 1022.4 hPa | 1.78 mm | - | 0 W/m² | - |
| 1777973080 | 3.33° C | 94% | 1022.3 hPa | 1.78 mm | - | 0 W/m² | - |
| 1777972778 | 3.89° C | 94% | 1022.5 hPa | 0 mm | - | 0 W/m² | - |
| 1777972475 | 3.89° C | 94% | 1022.4 hPa | 1.78 mm | - | 0 W/m² | - |
| 1777972173 | 3.89° C | 94% | 1022.1 hPa | 1.27 mm | - | 0 W/m² | - |
| 1777971871 | 4.44° C | 94% | 1022 hPa | 1.27 mm | - | 0 W/m² | - |
| 1777971568 | 4.44° C | 94% | 1022.1 hPa | 1.78 mm | - | 0 W/m² | - |
| 1777971266 | 4.44° C | 93% | 1022.4 hPa | 1.78 mm | - | 0 W/m² | - |
| 1777970964 | 5° C | 93% | 1022.1 hPa | 1.27 mm | - | 0 W/m² | - |
| 1777970662 | 5° C | 93% | 1022 hPa | 1.27 mm | - | 0 W/m² | - |
| 1777970359 | 5° C | 93% | 1021.9 hPa | 3.05 mm | - | 0 W/m² | - |
| 1777970057 | 5° C | 93% | 1022 hPa | 4.83 mm | - | 0 W/m² | - |
| 1777969753 | 5.56° C | 93% | 1021.9 hPa | 4.83 mm | - | 0 W/m² | - |
| 1777969449 | 5.56° C | 93% | 1021.9 hPa | 4.32 mm | - | 0 W/m² | - |
| 1777969146 | 5.56° C | 93% | 1021.9 hPa | 1.27 mm | - | 0 W/m² | - |
| 1777968842 | 5.56° C | 93% | 1021.8 hPa | 1.78 mm | - | 0 W/m² | - |
| 1777968539 | 5.56° C | 93% | 1021.8 hPa | 1.78 mm | - | 0 W/m² | - |
| 1777968235 | 5.56° C | 93% | 1021.8 hPa | 0 mm | - | 0 W/m² | - |
| 1777967931 | 5.56° C | 92% | 1021.8 hPa | 0 mm | - | 0 W/m² | - |
* Rain latest hour (hover to see other rain measurements)
** Current wind speed in m/s (hover to see current wind gust speed)